Starlink 34059

operational
NORAD ID: 63872 Int'l Des: 2025-094 Owner: SPXS Country: US Constellation: starlink
LEOCIRCULAR

Starlink 34059について

説明を読み込み中...

リアルタイム位置

3D地球を読み込み中...

次回通過

高度履歴

Altitude vs Time

uPlot chart will show altitude changes over time

軌道要素

1 63872U 25094J 25340.78758065 .00007460 00000-0 63248-3 0 9999
2 63872 70.0015 108.8484 0003183 270.6565 89.4229 14.98321607 33281
Epoch: Dec 6, 2025 • Age: 20 hours

現在のステータス

高度 594.9 km
速度 7.56 km/s
衛星直下点 -68.19°S, 94.7°E
打ち上げ日 May 10, 2025
運用期間 0.5 years
タイプ internet

技術仕様

分類 Payload
質量 575.00 kg
乾燥質量 530.00 kg
総質量 575.00 kg
長さ 0.30 m
直径 4.10 m
スパン 29.00 m
形状 Box + pan
製造者 SPXS
バスタイプ Starlink V2MO
フェーズステータス In Orbit
所有者/国 SPXS/US

大規模コンステレーション

Loading constellations...